Galveston, TX

3:32 AM CST on January 22, 2017 (GMT -0600)
Scholes International At Galveston

Weather History for KGLS - March, 2013

Change the Weather History Date:

Monday, March 11, 2013

  Actual Average Record
Temperature  
Mean Temperature 58 °F 62 °F  
Max Temperature 66 °F 69 °F 78 °F (2006)
Min Temperature 50 °F 55 °F 31 °F (1948)
Degree Days  
Heating Degree Days 7 4  
Month to date heating degree days 56 52  
Since 1 July heating degree days 666 940  
Cooling Degree Days 0 1  
Month to date cooling degree days 7 11  
Year to date cooling degree days 43 28  
Growing Degree Days 8 (Base 50)    
Moisture  
Dew Point 33 °F    
Average Humidity 41    
Maximum Humidity 59    
Minimum Humidity 22    
Precipitation  
Precipitation T in 0.10 in 1.17 in (1914)
Month to date precipitation 0.17 1.25  
Year to date precipitation 9.59 8.02  
Snow  
Snow 0.00 in - - ()
Month to date snowfall 0.0  
Since 1 July snowfall 0.0 0.0  
Snow Depth 0.00 in    
Sea Level Pressure  
Sea Level Pressure 30.07 in    
Wind  
Wind Speed 14 mph (NNW)    
Max Wind Speed 32 mph    
Max Gust Speed 40 mph    
Visibility 10 miles    
Events      
T = Trace of Precipitation, MM = Missing Value Source: NWS Daily Summary

Daily Weather History Graph

Daily Weather History Graph

Search for Another Location

Airport or City:

Trip Planner

Search our weather history database for the weather conditions in past years. The results will help you decide how hot, cold, wet, or windy it might be!

Date:

Astronomy

Mar. 11, 2013 Rise Set
Actual Time 7:33 AM CDT 7:25 PM CDT
Civil Twilight 7:09 AM CDT 7:49 PM CDT
Nautical Twilight 6:42 AM CDT 8:16 PM CDT
Astronomical Twilight 6:14 AM CDT 8:44 PM CDT
Moon 7:09 AM CDT (3/11) 7:33 PM CDT (3/11)
Length of Visible Light 12h 39m
Length of Day
11h 52m
Waning Crescent, 0% of the Moon is Illuminated
Mar 11
Waning Crescent
Mar 11
New
Mar 19
First Quarter
Mar 27
Full
Apr 2
Last Quarter

Hourly Weather History & Observations

Time (CDT) Temp. Dew Point Humidity Pressure Visibility Wind Dir Wind Speed Gust Speed Precip Events Conditions
12:52 AM 57.0 °F 41.0 °F 55% 30.06 in 10.0 mi North 24.2 mph 35.7 mph N/A   Overcast
1:52 AM 55.9 °F 39.0 °F 53% 30.07 in 10.0 mi NNW 27.6 mph 40.3 mph N/A   Scattered Clouds
2:52 AM 55.0 °F 37.9 °F 53% 30.04 in 10.0 mi North 26.5 mph 39.1 mph N/A   Mostly Cloudy
3:52 AM 54.0 °F 36.0 °F 51% 30.06 in 10.0 mi North 20.7 mph - N/A   Mostly Cloudy
4:52 AM 53.6 °F 37.4 °F 54% 30.08 in 10.0 mi North 13.8 mph - N/A   Mostly Cloudy
5:52 AM 52.0 °F 37.9 °F 59% 30.07 in 10.0 mi North 10.4 mph - N/A   Partly Cloudy
6:52 AM 51.1 °F 37.9 °F 61% 30.08 in 10.0 mi North 11.5 mph - N/A   Clear
7:52 AM 51.1 °F 36.0 °F 56% 30.11 in 10.0 mi North 9.2 mph - N/A   Clear
8:52 AM 53.1 °F 35.1 °F 50% 30.12 in 10.0 mi NNW 13.8 mph - N/A   Clear
9:52 AM 55.0 °F 36.0 °F 49% 30.14 in 10.0 mi North 11.5 mph - N/A   Clear
10:52 AM 57.0 °F 32.0 °F 39% 30.13 in 10.0 mi NNW 16.1 mph 23.0 mph N/A   Clear
11:52 AM 60.1 °F 30.9 °F 33% 30.11 in 10.0 mi NW 15.0 mph 21.9 mph N/A   Clear
12:52 PM 62.1 °F 28.0 °F 28% 30.09 in 10.0 mi NW 17.3 mph 26.5 mph N/A   Clear
1:52 PM 63.0 °F 27.0 °F 26% 30.05 in 10.0 mi WNW 11.5 mph 21.9 mph N/A   Clear
2:52 PM 64.0 °F 26.1 °F 24% 30.03 in 10.0 mi WNW 10.4 mph 23.0 mph N/A   Clear
3:52 PM 64.9 °F 24.1 °F 21% 30.01 in 10.0 mi NW 16.1 mph 21.9 mph N/A   Clear
4:52 PM 64.9 °F 26.1 °F 23% 29.99 in 10.0 mi WNW 13.8 mph 20.7 mph N/A   Clear
5:52 PM 64.0 °F 26.1 °F 24% 29.99 in 10.0 mi NW 15.0 mph 23.0 mph N/A   Clear
6:52 PM 62.1 °F 28.0 °F 28% 30.01 in 10.0 mi NW 13.8 mph - N/A   Clear
7:52 PM 59.0 °F 30.0 °F 33% 30.03 in 10.0 mi NW 11.5 mph - N/A   Clear
8:52 PM 57.9 °F 32.0 °F 37% 30.06 in 10.0 mi NNW 8.1 mph - N/A   Clear
9:52 PM 59.0 °F 30.0 °F 33% 30.09 in 10.0 mi NNW 13.8 mph - N/A   Clear
10:52 PM 55.9 °F 37.0 °F 49% 30.11 in 10.0 mi NNW 10.4 mph - N/A   Clear
11:52 PM 55.9 °F 35.1 °F 45% 30.12 in 10.0 mi NNW 8.1 mph - N/A   Clear